Simultaneous Nadir Overpasses (SNOs) Predictions

Prediction of SNOs between GOES-17 and METOP-B Satellite Orbit:

Table of predicted SNOs for the next 14.0 days since TLE Epoch: 7/9/2022
Index Date Time (GOES-17) GOES-17 Lat,Lon METOP-B Lat,Lon Distance(km) Time Diff (sec)
1 07/10/2022 06:41:21 -0.02,-137.26 -0.20,-138.13 98.80 80
2 07/11/2022 06:23:21 -0.02,-137.26 0.91,-133.13 471.10 80
3 07/12/2022 18:39:33 0.02,-137.27 0.12,-137.69 47.90 80
4 07/15/2022 06:40:33 -0.02,-137.27 -0.01,-137.30 2.43 80
5 07/17/2022 18:38:45 0.00,-137.28 -0.07,-136.86 47.03 80
6 07/19/2022 06:55:06 0.00,-137.28 -0.93,-141.46 476.69 80
7 07/20/2022 06:37:06 -0.00,-137.28 0.19,-136.47 92.40 80
8 07/21/2022 18:53:17 0.00,-137.27 0.85,-141.02 427.91 80
9 07/22/2022 18:35:18 0.01,-137.27 -0.27,-136.03 140.96 80
